[[{"header":{"parameterUnit":"m.s-1","parameterCategory":1,"la1":30.2991,"la2":30.254,"lo1":-89.0895,"lo2":-89.0444,"dy":0.0017,"dx":0.0017,"nx":28,"ny":28,"refTime":"2025-07-15T09:00:00:Z","depth":0,"parameterNumber":2,"parameterNumberName":"U-component_of_WINDS"},"data":[0,0,0,0,0,0,0,0,0,0,0,0,0,0,0,0,0,0,0,0,0,0,0,0,0,0,0,0,0,0,0,0,0,0,0,0,0,0,0,0,0,0,0,0,0,0,0,0,0,0,0,0,0,0,0,0,0,0,2.7209,2.721,0,2.7249,2.7249,2.725,2.7118,2.7114,2.711,2.7106,2.7156,2.7161,2.7166,0,0,0,0,0,0,0,0,0,0,0,0,0,2.7029,2.7033,2.7209,2.721,2.721,2.7249,2.725,2.725,2.7119,2.7114,2.7109,2.7104,2.7154,2.716,2.7166,0,0,0,0,0,0,0,0,0,0,0,0,0,2.7092,2.7034,2.7209,2.7149,2.7144,2.7249,2.725,2.725,2.712,2.7114,2.7108,2.7102,2.7152,2.7159,2.7167,2.7334,0,0,2.719,2.7193,0,0,0,0,0,0,0,0,2.7089,2.7099,2.7158,2.7154,2.7148,2.7172,2.7204,2.7279,2.7121,2.7129,2.7106,2.7099,2.7167,2.7173,2.7193,2.7336,2.7338,2.7191,2.7195,2.7198,2.7201,0,0,0,0,0,0,0,2.7084,2.7097,2.7225,2.7159,2.7153,2.7123,2.7126,2.7217,2.7182,2.7128,2.7119,2.7125,2.7163,2.7187,2.7194,2.7339,2.719,2.7197,2.7202,2.7205,2.7622,2.7629,0,0,0,0,0,0,2.7087,2.7094,2.7224,2.7226,2.7103,2.7131,2.7134,2.7171,2.718,2.7176,2.713,2.7118,2.7177,2.7185,2.7195,2.7392,2.7198,2.7205,2.721,2.7616,2.7624,2.7631,0,0,0,0,0,0,2.7083,2.71,2.7222,2.7158,2.7171,2.7141,2.7183,2.7175,2.7198,2.7181,2.7175,2.716,2.7172,2.7184,2.73,2.7392,2.7209,2.7216,2.7608,2.7618,2.7627,2.7787,0,0,0,0,0,0,2.7079,2.7099,2.716,2.716,2.7175,2.7325,2.7189,2.718,2.721,2.7196,2.7208,2.7204,2.7168,2.7289,2.7308,2.7399,2.7222,2.76,2.7613,2.7624,2.7773,2.7801,2.7824,0,0,0,0,0,2.7073,2.7205,2.7164,2.718,2.725,2.733,2.7339,2.7292,2.7218,2.7281,2.727,2.7204,2.7379,2.7302,2.7322,2.7417,2.7594,2.7609,2.7623,2.7762,2.7795,2.7824,0,0,0,0,0,0,2.7219,2.7204,2.7158,2.7293,2.7314,2.7307,2.7385,2.733,2.7374,2.7359,2.7302,2.7306,2.7433,2.7436,2.7351,2.758,2.7474,2.7493,2.7572,2.7604,2.7629,2.7626,2.7228,0,0,0,0,0,2.7267,2.7331,2.7314,2.7436,2.7448,2.7415,2.7448,2.7411,2.7431,2.744,2.7437,2.7462,2.7522,2.7563,2.7618,2.7773,2.7775,2.7848,2.7874,2.7895,2.7913,2.7996,2.8029,2.7679,2.7679,2.7679,0,0,2.7367,2.7366,2.741,2.7465,2.7476,2.7547,2.7423,2.7502,2.7554,2.7452,2.7561,2.7561,2.7584,2.7721,2.7781,2.7728,2.801,2.7914,2.7931,2.7937,2.8015,2.8048,2.8078,2.7689,2.7688,2.7686,0,0,2.7585,2.759,2.7691,2.7705,2.7723,2.77,2.7725,2.7728,2.7723,2.783,2.7755,2.7818,2.7923,2.7943,2.7968,2.8195,2.8136,2.8215,2.8349,2.8431,2.8459,2.8483,2.8565,2.8596,2.8232,2.8233,2.8233,0,2.7707,2.7806,2.7752,2.7836,2.7863,2.7772,2.7876,2.7893,2.793,2.7952,2.7891,2.8021,2.8031,2.8172,2.8227,2.8249,2.8278,2.8213,2.8459,2.8483,2.8504,2.8582,2.8613,2.8242,2.8241,2.824,2.8239,0,2.7957,2.8028,2.8109,2.8143,2.818,2.8274,2.8236,2.8281,2.8241,2.8226,2.8338,2.8346,2.8401,2.8432,2.8394,2.8568,2.8535,2.8468,2.836,2.8548,2.862,2.865,2.8256,2.8252,2.8249,2.8247,0,0,2.8268,2.8271,2.8302,2.8317,2.8331,2.8386,2.8477,2.8528,2.8568,2.8597,2.8674,2.8765,2.8703,2.8731,2.8695,2.8768,2.8949,2.8692,2.8692,2.874,2.9143,2.9194,2.9229,2.891,2.8915,2.892,2.9141,0,2.8482,2.8635,2.8589,2.8745,2.881,2.8725,2.8805,2.8824,2.8813,2.887,2.8858,2.8924,2.8837,2.8853,2.8921,2.8913,2.903,2.8896,2.8984,2.8987,2.8981,2.9267,2.932,2.9529,2.9169,2.9174,2.9177,0,2.8752,2.879,2.8951,2.8955,2.8981,2.9053,2.9097,2.9151,2.9172,2.9159,2.9191,2.9141,2.9234,2.9126,2.9255,2.9165,2.9199,2.9201,2.9207,2.9214,2.9094,2.9283,2.9594,2.9626,2.9221,2.9218,2.9215,0,2.8964,2.9055,2.9163,2.9179,2.9186,2.9239,2.9245,2.9259,2.9294,2.9334,2.9356,2.9407,2.9436,2.9478,2.9445,2.9369,2.958,2.9469,2.9574,2.9576,2.9623,2.962,2.9945,2.9644,2.9643,2.9643,2.9642,0,2.9209,2.9311,2.9258,2.9325,2.9438,2.9386,2.95,2.9497,2.9511,2.9578,2.9509,2.9574,2.9525,2.9587,2.9562,2.9673,2.9687,2.9681,2.9673,2.9687,2.9688,2.9709,2.9694,2.9651,2.9649,2.9648,2.9646,0,2.9464,2.9432,2.9545,2.9542,2.9544,2.9628,2.9626,2.969,2.9674,2.976,2.9777,2.9753,2.9822,2.9792,2.9866,2.9849,2.9993,2.9966,2.9985,2.9978,3.0086,3.0077,3.0436,3.0481,3.015,3.0153,3.0156,0,2.9622,2.9699,2.9704,2.9742,2.9752,2.9816,2.985,2.9802,2.9842,2.9872,2.9933,2.9995,3.0043,3.0158,3.0149,3.0206,3.018,3.0302,3.0188,3.0201,3.0183,3.0179,3.0188,3.0325,3.0329,3.0332,3.0335,0,2.9907,2.9888,2.9938,2.9984,3.0027,3.0061,3.009,3.0127,3.0081,3.0129,3.0197,3.0234,3.0309,3.0373,3.0423,3.0432,3.0378,3.0371,3.0398,3.0414,3.0422,3.042,3.0048,3.0363,3.036,3.0358,3.0356,3.0355,3.0119,3.0183,3.0197,3.0256,3.0273,3.0302,3.0361,3.0352,3.0408,3.0463,3.0432,3.0513,3.0535,3.0596,3.0613,3.0677,3.063,3.067,3.068,3.0691,3.0705,3.0412,3.0687,3.0686,3.0685,3.0684,3.0684,0,3.0401,3.0405,3.046,3.0502,3.055,3.0491,3.0521,3.0565,3.0636,3.0659,3.0707,3.0787,3.0849,3.0846,3.0904,3.0956,3.0933,3.0973,3.0969,3.0973,3.0744,3.0714,3.0991,3.0991,3.0991,3.0991,3.0991,3.0991,3.0553,3.0659,3.0642,3.0757,3.0761,3.0838,3.086,3.0887,3.0905,3.0997,3.1048,3.1044,3.1057,3.1116,3.1171,3.1169,3.1194,3.1244,3.1233,3.1019,3.0989,3.096,3.0932,3.125,3.125,3.1456,3.1458,3.146]},{"header":{"parameterUnit":"m.s-1","parameterCategory":1,"la1":30.2991,"la2":30.254,"lo1":-89.0895,"lo2":-89.0444,"dy":0.0017,"dx":0.0017,"nx":28,"ny":28,"refTime":"2025-07-15T09:00:00:Z","depth":0,"parameterNumber":3,"parameterNumberName":"V-component_of_WINDS"},"data":[0,0,0,0,0,0,0,0,0,0,0,0,0,0,0,0,0,0,0,0,0,0,0,0,0,0,0,0,0,0,0,0,0,0,0,0,0,0,0,0,0,0,0,0,0,0,0,0,0,0,0,0,0,0,0,0,0,0,1.0201,1.0202,0,1.0272,1.0273,1.0274,1.0243,1.0241,1.024,1.0238,1.031,1.0314,1.0317,0,0,0,0,0,0,0,0,0,0,0,0,0,1.0037,1.004,1.0201,1.0202,1.0203,1.0272,1.0273,1.0274,1.0243,1.0241,1.0239,1.0237,1.0309,1.0313,1.0317,0,0,0,0,0,0,0,0,0,0,0,0,0,1.0108,1.0041,1.0201,1.0196,1.0196,1.0272,1.0273,1.0274,1.0244,1.0241,1.0239,1.0236,1.0308,1.0313,1.0318,1.0403,0,0,1.0334,1.0336,0,0,0,0,0,0,0,0,1.0104,1.0114,1.0196,1.0196,1.0197,1.0246,1.0242,1.0317,1.0244,1.0226,1.0238,1.0235,1.0291,1.0297,1.0316,1.0406,1.0409,1.0335,1.0338,1.034,1.0342,0,0,0,0,0,0,0,1.0099,1.0111,1.0229,1.0197,1.0197,1.0189,1.0197,1.0256,1.0272,1.0227,1.0225,1.0234,1.0291,1.0311,1.0318,1.041,1.0334,1.0339,1.0342,1.0345,1.0571,1.0574,0,0,0,0,0,0,1.0094,1.0107,1.0227,1.0231,1.0143,1.0195,1.0203,1.0233,1.0271,1.0274,1.0236,1.0232,1.0304,1.0312,1.032,1.0421,1.034,1.0345,1.0348,1.0568,1.0572,1.0575,0,0,0,0,0,0,1.0091,1.0105,1.0224,1.0169,1.0183,1.02,1.0234,1.0235,1.0256,1.0278,1.028,1.0254,1.0302,1.0313,1.0382,1.0423,1.0347,1.0352,1.0565,1.057,1.0573,1.0624,0,0,0,0,0,0,1.0087,1.0104,1.0137,1.017,1.0186,1.0285,1.0237,1.0239,1.0265,1.0261,1.0296,1.0299,1.0301,1.0374,1.0387,1.0429,1.0356,1.0561,1.0567,1.0572,1.0619,1.063,1.0639,0,0,0,0,0,1.0081,1.0149,1.0139,1.0154,1.0227,1.0288,1.0297,1.0298,1.0269,1.0302,1.0315,1.0298,1.0417,1.0382,1.0396,1.044,1.0559,1.0565,1.0572,1.0614,1.0627,1.0638,0,0,0,0,0,0,1.0121,1.0153,1.0142,1.0223,1.0253,1.0282,1.0324,1.0312,1.035,1.0344,1.0343,1.0351,1.0423,1.0438,1.0399,1.0523,1.0483,1.0493,1.0511,1.0523,1.0533,1.0528,1.0361,0,0,0,0,0,1.0139,1.0185,1.0211,1.0279,1.0295,1.0307,1.0333,1.0331,1.0362,1.0374,1.0393,1.0423,1.0467,1.0496,1.0538,1.0621,1.0627,1.0658,1.0668,1.0676,1.0684,1.0728,1.0742,1.0596,1.0596,1.0596,0,0,1.0177,1.02,1.023,1.0288,1.0311,1.0358,1.0318,1.037,1.0405,1.0382,1.0448,1.0463,1.0497,1.0573,1.0607,1.0588,1.0726,1.0684,1.069,1.0694,1.0736,1.075,1.0762,1.06,1.06,1.0599,0,0,1.0271,1.0293,1.0352,1.0376,1.0411,1.0418,1.0432,1.0464,1.0473,1.0539,1.0523,1.0564,1.064,1.0664,1.0687,1.0788,1.0773,1.0802,1.0854,1.0897,1.0909,1.0919,1.0955,1.0967,1.081,1.081,1.081,0,1.0313,1.0385,1.0384,1.0438,1.0464,1.0444,1.0504,1.0527,1.0574,1.0592,1.0569,1.0663,1.0685,1.0766,1.0791,1.081,1.0825,1.0798,1.0907,1.0917,1.0927,1.0961,1.0974,1.0813,1.0813,1.0813,1.0812,0,1.0435,1.0485,1.0529,1.0574,1.0605,1.0661,1.0669,1.07,1.0694,1.0704,1.0771,1.0796,1.0842,1.0861,1.0857,1.0942,1.0929,1.0907,1.0866,1.0944,1.0976,1.0989,1.0818,1.0817,1.0816,1.0815,0,0,1.0557,1.0601,1.0617,1.0637,1.0674,1.0712,1.0767,1.0812,1.0838,1.0871,1.0916,1.0981,1.096,1.0986,1.0984,1.1022,1.11,1.0995,1.0996,1.1013,1.1194,1.121,1.1225,1.109,1.1092,1.1094,1.1191,0,1.0653,1.075,1.075,1.0839,1.0885,1.0867,1.0915,1.0942,1.0952,1.0992,1.1002,1.1048,1.1018,1.1033,1.107,1.1083,1.1136,1.1075,1.1132,1.1134,1.1124,1.1242,1.126,1.135,1.1203,1.1206,1.1207,0,1.0778,1.0815,1.0908,1.0938,1.0957,1.1,1.1041,1.1079,1.1109,1.1114,1.1142,1.1134,1.1189,1.1147,1.1222,1.1181,1.1204,1.1214,1.1217,1.1222,1.1175,1.125,1.1378,1.1392,1.1227,1.1225,1.1224,0,1.0857,1.0929,1.0995,1.1012,1.1049,1.1079,1.1095,1.1123,1.115,1.1185,1.1202,1.1244,1.1266,1.1298,1.1301,1.127,1.1377,1.1335,1.1382,1.1382,1.1405,1.1404,1.1539,1.142,1.142,1.142,1.142,0,1.0964,1.1022,1.103,1.1071,1.1134,1.1134,1.1197,1.1211,1.1235,1.1277,1.1264,1.1304,1.1305,1.1345,1.1348,1.141,1.142,1.1425,1.1425,1.1426,1.1425,1.1441,1.1435,1.1424,1.1423,1.1422,1.1421,0,1.1063,1.1071,1.1141,1.1169,1.1177,1.1223,1.1247,1.1285,1.1293,1.1346,1.1359,1.1372,1.1419,1.1425,1.1479,1.1481,1.1555,1.1548,1.1545,1.1544,1.159,1.1585,1.1739,1.1759,1.1628,1.1629,1.163,0,1.1131,1.1175,1.1207,1.1235,1.1253,1.1297,1.1324,1.1325,1.1353,1.1391,1.1424,1.1469,1.1505,1.158,1.1594,1.1636,1.163,1.1681,1.1636,1.1636,1.163,1.1628,1.1632,1.169,1.1691,1.1692,1.1693,0,1.125,1.1251,1.1291,1.1333,1.1365,1.1398,1.1428,1.1451,1.1456,1.1489,1.1536,1.1564,1.1619,1.1664,1.1705,1.1721,1.1708,1.1707,1.172,1.1722,1.1718,1.172,1.1568,1.1704,1.1703,1.1702,1.1701,1.1701,1.1335,1.1373,1.1402,1.1447,1.147,1.1498,1.1535,1.1548,1.1588,1.1633,1.1631,1.1683,1.1711,1.1764,1.1783,1.1823,1.1806,1.1825,1.183,1.1834,1.1839,1.1712,1.1831,1.183,1.183,1.183,1.183,0,1.1453,1.1471,1.1512,1.1555,1.159,1.1575,1.1607,1.1637,1.1684,1.1711,1.1747,1.1801,1.1844,1.1861,1.1903,1.1932,1.1927,1.1943,1.1941,1.1945,1.1852,1.1836,1.1946,1.1946,1.1946,1.1946,1.1946,1.1946,1.1519,1.1582,1.1587,1.1662,1.1679,1.173,1.175,1.1776,1.1798,1.1859,1.1895,1.1906,1.1929,1.1972,1.2011,1.2014,1.203,1.2049,1.205,1.1963,1.1951,1.194,1.1926,1.2053,1.2053,1.214,1.2141,1.2141]}]]